Weather Roundup
Issued by NWS

Home | Current Version | Previous Version | Graphics & Text | Print | Product List | Glossary Off
Versions: 1 2 3 4 5 6 7 8 9 10 11 12 13 14 15 16 17 18 19 20 21 22 23 24 25 26 27 28 29 30 31 32 33 34 35 36 37 38 39 40 41 42 43 44 45 46 47 48 49 50

568
NZUS93 KARX 232010
HRRWXR

CURRENT HOURLY OBSERVATIONS ACROSS
MUCH OF THE UPPER MISSISSIPPI VALLEY
NATIONAL WEATHER SERVICE LA CROSSE WI
300 PM CDT MON OCT 23 2017


...SOUTHEAST MINNESOTA...


CITY           SKY/WX    TMP DP  RH WIND       PRES   REMARKS
ROCHESTER      MOSUNNY   57  39  51 W26G36    29.75F
ROCHESTER/MAYO FAIR      58  36  44 W24G38    29.73F
WINONA         CLOUDY    54  43  66 CALM      29.74S
AUSTIN         MOSUNNY   57  36  44 W21G32    29.77F
ALBERT LEA     NOT AVBL
DODGE CENTER   MOSUNNY   55  37  50 W21G32    29.76F
PRESTON        MOSUNNY   58  39  50 NW21G28   29.76S
OWATONNA       PTSUNNY   54  39  58 W23G32    29.80F
FARIBAULT      MOSUNNY   54  39  58 W18G28    29.80F
$$

...ELSEWHERE IN MINNESOTA...


CITY           SKY/WX    TMP DP  RH WIND       PRES   REMARKS
MINNEAPOLIS    MOSUNNY   56  41  57 NW21G26   29.78S
INTNL FALLS    CLOUDY    46  40  79 NW20      29.80R
DULUTH         MOSUNNY   57  42  57 NW20G30   29.69S
RED WING       MOSUNNY   61  36  39 NW16G25   29.72F
REDWOOD FALLS  CLOUDY    50  35  56 NW20G35   29.92R
MANKATO        NOT AVBL
WORTHINGTON    CLOUDY    48  37  65 NW26G33   29.96R
FAIRMONT       CLOUDY    51  38  60 NW26G36   29.89R
$$

...SOUTHWEST WISCONSIN...


CITY           SKY/WX    TMP DP  RH WIND       PRES   REMARKS
LA CROSSE      LGT RAIN  57  44  62 NW9       29.73F
PRAIRIE DU CHI CLOUDY    59  42  53 NW9       29.74F
BOSCOBEL       PTSUNNY   60  43  53 W9G21     29.74S
LONE ROCK      MOSUNNY   58  46  64 W13       29.72S
PLATTEVILLE    CLOUDY    58  46  63 W16G22    29.74F
FORT MC COY    CLOUDY    57  43  60 W6        29.73R
CAMP DOUGLAS   PTSUNNY   59  43  55 W10       29.71R
MAUSTON-NEW LI CLOUDY    59  44  58 W10G16    29.71R
VIROQUA        MOCLDY    56  45  66 W12       29.73F
WIS DELLS      MOSUNNY   57  42  58 SW7       29.71S
$$

...ELSEWHERE IN WISCONSIN...


CITY           SKY/WX    TMP DP  RH WIND       PRES   REMARKS
MILWAUKEE      CLOUDY    54  49  83 N8        29.69F
MADISON        CLOUDY    56  43  61 S5        29.70F
GREEN BAY      CLOUDY    53  46  77 CALM      29.73F
EAU CLAIRE     CLOUDY    56  43  61 W3        29.70F
BLACK RVR FLS  CLOUDY    56  40  53 W7        29.72R
MEDFORD        CLOUDY    52  41  66 W3        29.69F
WAUSAU         CLOUDY    55  41  59 SW7       29.68F
WIS RAPIDS     CLOUDY    57  45  64 SW7       29.71F
MARSHFIELD     CLOUDY    56  40  55 W7        29.69F
RICE LAKE      CLOUDY    59  42  52 W9        29.71F
$$

...NORTHEAST IOWA...


CITY           SKY/WX    TMP DP  RH WIND       PRES   REMARKS
WATERLOO       CLOUDY    58  45  62 NW13      29.77F
DUBUQUE        CLOUDY    58  43  57 NW14      29.74F
DECORAH        MOSUNNY   54  45  71 NW7       29.75S
MASON CITY     PTSUNNY   57  36  45 NW25G35   29.82F
CHARLES CITY   MOSUNNY   61  37  41 NW21G30   29.78S
OELWEIN        CLOUDY    54  48  82 NW8       29.78F
$$

...ELSEWHERE IN IOWA...


CITY           SKY/WX    TMP DP  RH WIND       PRES   REMARKS
DES MOINES     PTSUNNY   66  38  35 NW25G32   29.85F
IOWA CITY      MOSUNNY   60  44  55 NW15G26   29.79S
FORT DODGE     CLOUDY    57  35  43 NW20G30   29.87S
MARSHALLTOWN   SUNNY     61  41  47 NW24G32   29.80F
CEDAR RAPIDS   LGT RAIN  54  46  74 NW15      29.78F
$$

...NORTHERN ILLINOIS...


CITY           SKY/WX    TMP DP  RH WIND       PRES   REMARKS
CHICAGO-OHARE  CLOUDY    54  49  83 NW9       29.69F
CHICAGO-MIDWAY CLOUDY    54  51  90 NW10      29.69F
MOLINE         CLOUDY    61  48  62 W12       29.74F
ROCKFORD       CLOUDY    54  42  64 W5        29.74F
PEORIA         CLOUDY    61  45  55 W6        29.76F
$$

NOTE: "FAIR" INDICATES FEW OR NO CLOUDS BELOW 12,000 FEET WITH NO
SIGNIFICANT WEATHER AND/OR OBSTRUCTIONS TO VISIBILITY. WIND
SPEEDS ARE IN MILES-PER-HOUR.




USA.gov is the U.S. government's official web portal to all federal, state and local government web resources and services.